Terminal Aerodrome Forecast
Issued by NWS Cleveland, OH

Home | Current Version | Previous Version | Text Only | Print | Product List | Glossary Off
Versions: 1 2 3 4 5 6 7 8 9 10 11 12 13 14 15 16 17 18 19 20 21 22

000
FTUS41 KCLE 261100
TAFERI
TAF
KERI 261131Z 2612/2712 18007KT P6SM BKN090 BKN250
     FM261400 21010KT P6SM SCT050 BKN100
     FM262000 24012KT P6SM BKN050
     FM270000 26010KT P6SM BKN040=

USA.gov is the U.S. government's official web portal to all federal, state and local government web resources and services.